GFSNIL_925_spd_096.txt.gz
Wind_Speed
19 18 17 16 12 16 13 13 12 10 7 4 2 2 2 3 5 6 9 11 13 15
16 13 11 11 9 11 11 10 10 7 6 5 4 4 6 7 9 10 11 13 14 15
14 12 12 12 12 10 11 10 7 6 5 5 5 5 6 8 9 11 13 15 16 16
17 14 13 14 12 11 9 7 6 4 4 5 6 7 9 11 13 14 15 15 17 19
15 14 13 11 10 7 5 4 4 5 5 6 7 8 10 12 13 16 17 18 19 20
13 11 11 9 7 3 2 3 4 5 7 7 8 10 13 14 16 17 18 20 21 23
11 9 7 5 2 2 4 5 6 7 7 8 10 13 15 17 18 17 16 18 21 23
9 6 3 1 2 3 5 6 7 9 10 12 13 13 16 16 19 21 22 23 24 25
5 3 0 2 5 6 7 8 10 12 12 12 15 14 17 18 18 19 21 23 26 24
2 1 2 5 6 8 9 11 12 11 13 16 17 16 18 19 20 21 21 24 25 27
1 3 5 6 7 9 11 12 13 14 15 16 17 18 19 20 21 22 22 21 25 27
4 5 6 8 9 10 12 13 15 16 16 17 19 19 20 20 17 20 26 25 26 25
5 6 7 8 10 12 13 15 15 17 18 19 19 18 16 17 23 20 24 23 24 23
5 7 8 10 11 12 14 15 16 18 18 18 15 14 19 22 21 20 23 22 22 24

GFSNIL_925_spd_102.txt.gz
Wind_Speed
20 19 25 23 24 24 21 19 17 17 15 13 11 10 8 7 5 3 2 2 3 4
18 25 22 20 19 21 19 18 18 17 15 12 8 7 5 3 2 3 4 5 6 8
18 20 18 19 20 19 19 19 16 13 11 9 7 4 3 2 2 3 4 5 7 8
23 22 21 21 20 21 18 15 11 9 8 6 4 3 3 2 2 4 6 8 9 8
23 22 21 20 16 12 11 9 6 5 4 3 3 4 4 5 6 9 11 11 12 14
24 22 19 16 13 10 8 6 5 4 4 4 5 6 6 7 9 11 13 13 14 12
20 18 15 12 10 8 6 5 4 3 3 3 4 6 8 9 9 12 13 11 14 14
15 12 10 8 7 5 3 2 1 2 4 6 8 8 7 8 11 13 14 15 16 18
11 8 7 5 3 2 1 2 4 5 6 6 6 7 8 11 15 16 16 17 17 21
8 8 5 3 3 2 2 3 3 4 6 8 9 11 13 15 17 16 13 13 16 16
7 5 4 2 2 2 3 5 7 9 10 10 12 12 14 14 15 11 12 14 16 22
5 3 1 1 2 5 8 9 9 10 9 11 11 10 10 13 15 16 18 18 21 20
1 1 2 2 5 7 9 10 9 9 8 7 8 10 13 15 18 19 17 20 18 21
0 1 1 2 5 8 7 7 7 8 8 11 15 19 18 17 17 17 19 18 20 18

GFSNIL_925_spd_105.txt.gz
Wind_Speed
13 18 20 20 23 25 22 24 20 18 15 14 12 12 11 10 8 5 4 3 2 2
17 16 13 15 20 21 20 19 19 17 16 14 13 10 9 8 7 4 2 1 2 4
15 14 13 13 17 18 18 18 18 17 15 13 11 9 7 5 4 4 2 3 4 5
12 12 12 14 15 16 17 18 17 15 13 10 8 5 4 4 4 4 3 4 6 6
17 17 19 20 20 18 17 14 11 10 8 6 5 4 4 4 4 4 6 8 9 10
26 24 22 19 16 13 11 9 7 6 5 4 4 5 6 5 6 9 10 11 11 11
22 20 17 15 12 8 7 5 4 3 3 4 4 5 6 9 10 11 12 13 13 13
18 15 13 11 10 8 6 4 2 0 2 4 6 8 9 9 9 11 13 14 15 17
14 12 10 8 6 4 3 2 2 3 4 4 5 5 6 9 13 15 14 15 15 15
10 9 7 5 4 3 1 2 3 5 6 8 9 10 12 14 17 18 16 14 14 15
8 7 6 3 2 1 1 4 6 7 8 9 9 12 13 14 16 14 14 15 16 18
5 4 2 1 1 2 5 7 7 9 9 10 10 8 10 13 17 18 19 19 17 20
1 1 1 1 3 5 7 9 9 8 8 7 10 13 15 17 20 23 23 19 21 18
1 1 2 3 6 7 8 8 8 9 9 11 13 16 18 17 18 19 16 17 18 22

GFSNIL_925_spd_111.txt.gz
Wind_Speed
12 14 10 16 21 26 30 34 30 20 16 16 19 20 18 16 16 15 14 13 11 10
16 11 9 11 10 14 19 24 24 11 9 12 13 17 17 16 15 13 12 11 9 8
16 13 11 8 9 8 14 13 19 18 17 17 18 15 14 13 12 11 9 8 8 7
9 5 8 8 8 8 10 11 16 17 15 15 14 13 12 10 9 8 8 8 7 6
15 13 12 13 12 11 13 12 13 14 13 12 10 8 7 7 7 7 7 7 7 8
24 24 24 23 22 20 19 17 15 12 9 7 5 3 4 5 6 7 7 9 10 10
27 26 24 22 20 17 15 13 10 8 5 3 1 2 3 5 7 9 11 12 13 13
24 22 20 19 17 15 13 11 8 6 4 3 3 4 5 7 8 9 12 13 15 16
19 17 17 15 13 11 9 7 5 5 3 3 4 5 6 7 10 12 14 14 14 17
15 14 12 10 8 7 5 5 5 5 6 6 7 7 8 9 11 12 11 12 13 14
14 12 9 7 6 5 4 4 5 6 8 10 10 10 9 10 12 14 15 15 16 18
8 7 5 4 3 3 3 5 8 10 11 11 11 10 11 13 15 17 18 17 18 18
5 4 3 2 1 2 5 6 7 7 7 8 10 13 15 15 16 19 19 18 17 18
5 5 3 2 2 4 5 5 6 7 8 10 12 15 15 15 16 16 17 16 15 16

GFSNIL_925_spd_114.txt.gz
Wind_Speed
12 19 16 15 16 19 19 19 33 31 28 19 23 22 20 17 17 16 13 12 10 8
16 13 11 13 12 17 18 23 29 28 20 18 17 17 13 10 11 11 10 9 8 6
10 9 13 10 10 10 10 15 24 25 13 11 10 8 13 13 16 10 7 6 5 5
9 9 9 11 10 10 9 10 15 18 15 13 15 17 11 10 8 6 5 5 5 6
19 17 16 15 13 11 11 11 11 11 11 10 9 7 7 6 5 4 5 6 6 7
22 22 21 19 18 16 16 15 14 12 10 8 6 4 2 2 4 5 6 7 8 11
20 19 19 19 17 16 14 13 12 10 8 6 4 2 0 2 5 7 9 10 12 13
18 17 17 17 15 14 12 11 10 8 7 5 3 1 2 4 7 9 11 12 12 13
16 15 15 13 12 11 10 9 7 7 5 4 3 4 5 6 10 12 13 15 16 17
13 13 11 10 10 9 8 7 7 7 7 6 7 8 8 9 10 11 13 14 16 16
10 9 8 8 7 6 6 7 7 7 8 8 7 8 7 9 12 13 15 16 17 18
6 6 6 6 6 6 6 7 7 8 8 8 8 10 11 13 15 16 18 18 18 18
4 4 3 3 2 2 4 5 6 7 8 9 10 11 13 14 15 17 18 18 17 16
4 4 2 1 3 5 6 6 7 8 10 11 11 13 13 13 14 15 17 18 18 17

GFSNIL_925_spd_117.txt.gz
Wind_Speed
14 10 6 8 7 10 14 12 19 25 29 24 25 20 17 15 18 15 17 15 12 9
15 12 5 4 6 9 8 10 13 17 17 21 18 15 14 15 10 8 7 9 7 7
13 14 11 6 7 8 7 10 16 20 20 18 10 11 11 11 10 10 9 8 4 5
13 11 11 10 9 7 6 7 16 22 18 11 8 7 9 10 9 7 4 5 4 5
19 19 18 16 14 13 13 10 11 12 9 8 6 5 6 5 3 6 5 5 4 5
22 20 18 20 18 18 17 15 12 11 9 7 6 5 4 3 3 5 6 4 5 7
19 20 18 17 16 16 15 14 13 11 10 8 6 4 2 1 3 5 6 7 9 11
17 15 16 15 14 14 12 12 10 9 7 6 4 4 3 4 5 7 10 10 12 13
15 14 13 12 11 11 10 9 7 6 5 4 2 4 5 5 7 10 11 11 12 13
12 11 10 9 8 8 7 6 5 5 4 3 3 4 5 6 8 10 11 12 14 14
9 8 8 7 7 6 6 5 4 5 6 5 3 6 6 9 10 10 12 13 14 15
7 6 6 6 6 5 5 5 5 6 7 7 6 8 9 12 11 12 13 14 14 14
6 5 5 5 4 4 5 5 6 7 8 8 9 9 12 13 13 14 14 15 15 17
5 5 4 3 4 5 6 6 7 9 9 10 10 10 12 13 13 14 16 16 17 17